De Soto, IL

12:13 PM CST on December 03, 2016 (GMT -0600)
Southern Illinois

Weather History for KMDH - May, 2014

Change the Weather History Date:

Thursday, May 29, 2014

  Actual Average Record
Temperature  
Mean Temperature 72 °F -  
Max Temperature 82 °F 81 °F 98 °F (1911)
Min Temperature 64 °F 58 °F 41 °F (1964)
Cooling Degree Days 8    
Growing Degree Days 22 (Base 50)    
Moisture  
Dew Point 66 °F    
Average Humidity 82    
Maximum Humidity 97    
Minimum Humidity 60    
Precipitation  
Precipitation 0.00 in - - ()
Sea Level Pressure  
Sea Level Pressure 29.99 in    
Wind  
Wind Speed 2 mph (SSE)    
Max Wind Speed 12 mph    
Max Gust Speed -    
Visibility 9 miles    
Events Rain    
Averages and records for this station are not official NWS values.
T = Trace of Precipitation, MM = Missing Value Source: NWS Daily Summary

Daily Weather History Graph

Daily Weather History Graph

Search for Another Location

Airport or City:

Trip Planner

Search our weather history database for the weather conditions in past years. The results will help you decide how hot, cold, wet, or windy it might be!

Date:

Astronomy

May. 29, 2014 Rise Set
Actual Time 5:37 AM CDT 8:11 PM CDT
Civil Twilight 5:07 AM CDT 8:41 PM CDT
Nautical Twilight 4:29 AM CDT 9:19 PM CDT
Astronomical Twilight 3:47 AM CDT 10:02 PM CDT
Moon 6:30 AM CDT (5/29) 9:02 PM CDT (5/29)
Length of Visible Light 15h 34m
Length of Day
14h 33m
New Moon, 1% of the Moon is Illuminated
May 29
New Moon
Jun 5
First Quarter
Jun 12
Full
Jun 19
Last Quarter
Jun 27
New

Hourly Weather History & Observations

Time (CDT) Temp. Heat Index Dew Point Humidity Pressure Visibility Wind Dir Wind Speed Gust Speed Precip Events Conditions
12:52 AM 68.0 °F - 64.9 °F 90% 29.94 in 9.0 mi Calm Calm - N/A   Clear
1:52 AM 66.9 °F - 64.9 °F 93% 29.93 in 9.0 mi Calm Calm - N/A   Clear
2:52 AM 66.9 °F - 64.0 °F 90% 29.94 in 10.0 mi Calm Calm - N/A   Clear
3:52 AM 64.9 °F - 64.0 °F 97% 29.95 in 4.0 mi Calm Calm - N/A   Clear
4:52 AM 64.9 °F - 64.0 °F 97% 29.95 in 6.0 mi Calm Calm - N/A   Clear
5:52 AM 66.9 °F - 64.9 °F 93% 29.97 in 6.0 mi Calm Calm - N/A   Clear
6:52 AM 68.0 °F - 66.0 °F 93% 29.99 in 6.0 mi Calm Calm - N/A   Clear
7:52 AM 70.0 °F - 66.9 °F 90% 29.99 in 7.0 mi ESE 3.5 mph - 0.00 in   Clear
8:52 AM 71.1 °F - 68.0 °F 90% 30.01 in 7.0 mi Calm Calm - N/A   Scattered Clouds
9:12 AM 73.0 °F - 69.1 °F 87% 30.02 in 7.0 mi Calm Calm - N/A   Mostly Cloudy
9:52 AM 73.0 °F - 68.0 °F 84% 30.02 in 10.0 mi South 3.5 mph - 0.00 in Rain Light Rain
10:52 AM 75.0 °F - 66.9 °F 76% 30.03 in 10.0 mi Calm Calm - 0.00 in   Scattered Clouds
11:52 AM 75.9 °F - 64.9 °F 69% 30.03 in 10.0 mi South 3.5 mph - 0.00 in Rain Light Rain
12:52 PM 77.0 °F - 66.9 °F 71% 30.03 in 10.0 mi Variable 4.6 mph - 0.00 in   Scattered Clouds
1:52 PM 80.1 °F 82.3 °F 66.9 °F 64% 30.01 in 10.0 mi SE 5.8 mph - N/A   Mostly Cloudy
2:52 PM 81.0 °F 83.0 °F 66.0 °F 60% 29.99 in 10.0 mi SSE 6.9 mph - N/A   Partly Cloudy
3:52 PM 77.0 °F - 66.0 °F 69% 29.98 in 10.0 mi South 11.5 mph - N/A   Mostly Cloudy
4:52 PM 78.1 °F - 66.9 °F 68% 29.96 in 10.0 mi SE 3.5 mph - N/A   Partly Cloudy
5:52 PM 79.0 °F - 66.9 °F 66% 29.97 in 10.0 mi SE 5.8 mph - N/A   Clear
6:52 PM 77.0 °F - 66.9 °F 71% 29.97 in 10.0 mi SE 4.6 mph - N/A   Partly Cloudy
7:52 PM 75.9 °F - 68.0 °F 76% 29.98 in 10.0 mi South 4.6 mph - N/A   Mostly Cloudy
8:52 PM 73.0 °F - 66.9 °F 81% 29.99 in 10.0 mi Calm Calm - N/A   Scattered Clouds
9:52 PM 71.1 °F - 66.9 °F 87% 30.00 in 10.0 mi Calm Calm - N/A   Clear
10:52 PM 70.0 °F - 66.9 °F 90% 30.00 in 10.0 mi Calm Calm - N/A   Clear
11:52 PM 69.1 °F - 66.9 °F 93% 30.01 in 7.0 mi Calm Calm - N/A   Clear